Regional Weather Roundup
Issued by NWS

Home | Current Version | Previous Version | Graphics & Text | Print | Product List | Glossary On
Versions: 1 2 3 4 5 6 7 8 9 10 11 12 13 14 15 16 17 18 19 20 21 22 23 24 25 26 27
000
ASUS45 KSLC 191210
RWRUT

UTAH REGIONAL WEATHER ROUNDUP
NATIONAL WEATHER SERVICE SALT LAKE CITY UT
600 AM MDT SAT APR 19 2014

UTZ001>011-023>025-191300-

NORTHERN UTAH

CITY           SKY/WX    TMP DP  RH WIND       PRES   REMARKS
HILL AFB       CLEAR     47  37  67 SE10      29.99R
LOGAN          PTCLDY    38  34  85 CALM      30.02S
OGDEN          CLEAR     47  37  68 S5        29.98R
PROVO AIRPORT  MOCLDY    45  39  81 SE6       30.01S
SALT LAKE CITY PTCLDY    46  43  89 CALM      29.98S
VERNAL         MOCLDY    50  34  54 CALM      30.00S
WENDOVER       CLEAR     48  34  57 SW3       29.99R
HEBER CITY     CLOUDY    39  32  75 CALM      30.03S
WEST JORDAN    PTCLDY    45  39  81 CALM      30.00R

$$

UTZ012>022-026-027-191300-

SOUTHERN UTAH

CITY           SKY/WX    TMP DP  RH WIND       PRES   REMARKS
BRYCE CANYON   CLOUDY    37  29  72 VRB5      30.12F WCI  33
CEDAR CITY     MOCLDY    47  29  49 S5        30.03S
MILFORD        MOCLDY    48  27  44 S7        30.00S
MOAB/CYNLANDS  LGT RAIN  54  46  74 SE3       30.03R
PRICE          CLOUDY    52  30  43 E8        30.03R
ST GEORGE      PTSUNNY   61  37  41 E10       29.98S

$$

REGIONAL REPORTS     COLORADO/ARIZONA

CITY           SKY/WX    TMP DP  RH WIND       PRES   REMARKS
CRAIG, CO      MOCLDY    36  31  82 E5        30.07R WCI  32
GRAND JUNCTION LGT RAIN  53  41  63 N12       30.04R
RIFLE          MOCLDY    48  35  60 NW5       30.05R
MONTROSE       CLOUDY    54  35  48 CALM      30.08S
CORTEZ         CLOUDY    47  45  93 CALM      30.12S
PAGE, AZ       CLOUDY    57  39  51 SE5       30.03R
GRAND CANYON   CLOUDY    36  36 100 CALM      30.10F
KINGMAN        CLOUDY    55  47  74 CALM      29.98F
FLAGSTAFF      CLEAR     30  28  92 CALM      30.10S

$$

REGIONAL REPORTS    NEVADA/IDAHO/WYOMING

CITY           SKY/WX    TMP DP  RH WIND       PRES   REMARKS
LAS VEGAS, NV  PTCLDY    66  39  37 S10       29.89R
ELY            CLEAR     39  23  52 S13       30.03S WCI  31
ELKO           PTCLDY    37  25  61 NE5       30.01S WCI  33
POCATELLO, ID  CLEAR     31  22  69 CALM      30.02S
BURLEY         PTCLDY    32  28  85 E3        29.99F
EVANSTON, WY   PTCLDY    37  30  75 NE3       30.06S
ROCK SPRINGS   CLOUDY    40  26  57 W5        30.05S

$$



USA.gov is the U.S. government's official web portal to all federal, state and local government web resources and services.